Time,TemperatureF,DewpointF,PressureIn,WindDirection,WindDirectionDegrees,WindSpeedMPH,WindSpeedGustMPH,Humidity,HourlyPrecipIn,Conditions,Clouds,dailyrainin,SoftwareType,DateUTC
2013-01-26 00:02:00,24.0,18.0,30.22,NNW,336,4.0,9.0,77,0.00,,,0.00,,2013-01-26 06:02:00,
2013-01-26 00:12:00,24.0,18.0,30.22,NNW,336,4.0,9.0,77,0.00,,,0.00,,2013-01-26 06:12:00,
2013-01-26 00:21:00,23.0,16.0,30.23,NW,326,5.0,11.0,73,0.00,,,0.00,,2013-01-26 06:21:00,
2013-01-26 00:32:00,23.0,14.0,30.24,NNW,329,5.0,12.0,68,0.00,,,0.00,,2013-01-26 06:32:00,
2013-01-26 00:41:00,23.0,14.0,30.24,NNW,329,5.0,12.0,68,0.00,,,0.00,,2013-01-26 06:41:00,
2013-01-26 00:51:00,22.0,13.0,30.24,NNW,342,6.0,11.0,68,0.00,,,0.00,,2013-01-26 06:51:00,
2013-01-26 01:02:00,21.0,11.0,30.24,NNW,338,9.0,14.0,66,0.00,,,0.00,,2013-01-26 07:02:00,
2013-01-26 01:12:00,21.0,11.0,30.24,NNW,338,9.0,14.0,66,0.00,,,0.00,,2013-01-26 07:12:00,
2013-01-26 01:21:00,21.0,11.0,30.24,NNW,338,9.0,14.0,66,0.00,,,0.00,,2013-01-26 07:21:00,
2013-01-26 01:33:00,20.0,11.0,30.26,NNW,331,6.0,12.0,68,0.00,,,0.00,,2013-01-26 07:33:00,
2013-01-26 01:41:00,20.0,11.0,30.26,NNW,331,6.0,12.0,68,0.00,,,0.00,,2013-01-26 07:41:00,
2013-01-26 01:52:00,19.0,11.0,30.26,NNW,329,5.0,12.0,69,0.00,,,0.00,,2013-01-26 07:52:00,
2013-01-26 02:02:00,19.0,11.0,30.26,NNW,342,5.0,10.0,70,0.00,,,0.00,,2013-01-26 08:02:00,
2013-01-26 02:11:00,19.0,11.0,30.26,NNW,342,5.0,10.0,70,0.00,,,0.00,,2013-01-26 08:11:00,
2013-01-26 02:21:00,18.0,10.0,30.27,NNW,348,4.0,8.0,71,0.00,,,0.00,,2013-01-26 08:21:00,
2013-01-26 02:32:00,18.0,11.0,30.27,NNE,17,3.0,7.0,72,0.00,,,0.00,,2013-01-26 08:32:00,
2013-01-26 02:42:00,18.0,11.0,30.27,NNE,17,3.0,7.0,72,0.00,,,0.00,,2013-01-26 08:42:00,
2013-01-26 02:53:00,17.0,10.0,30.27,North,360,4.0,8.0,73,0.00,,,0.00,,2013-01-26 08:53:00,
2013-01-26 03:02:00,17.0,10.0,30.28,NW,317,2.0,5.0,74,0.00,,,0.00,,2013-01-26 09:02:00,
2013-01-26 03:11:00,17.0,10.0,30.28,NW,317,2.0,5.0,74,0.00,,,0.00,,2013-01-26 09:11:00,
2013-01-26 03:22:00,17.0,10.0,30.28,NW,317,2.0,5.0,74,0.00,,,0.00,,2013-01-26 09:22:00,
2013-01-26 03:32:00,17.0,10.0,30.29,NNW,347,2.0,5.0,75,0.00,,,0.00,,2013-01-26 09:32:00,
2013-01-26 03:42:00,17.0,10.0,30.29,NNW,347,2.0,5.0,75,0.00,,,0.00,,2013-01-26 09:42:00,
2013-01-26 03:52:00,16.0,9.0,30.29,North,355,2.0,4.0,75,0.00,,,0.00,,2013-01-26 09:52:00,
2013-01-26 04:21:00,15.0,9.0,30.30,NW,315,1.0,4.0,77,0.00,,,0.00,,2013-01-26 10:21:00,
2013-01-26 04:32:00,15.0,9.0,30.31,NW,306,2.0,5.0,77,0.00,,,0.00,,2013-01-26 10:32:00,
2013-01-26 04:42:00,15.0,9.0,30.31,NW,306,2.0,5.0,77,0.00,,,0.00,,2013-01-26 10:42:00,
2013-01-26 04:52:00,15.0,9.0,30.31,NW,306,2.0,5.0,77,0.00,,,0.00,,2013-01-26 10:52:00,
2013-01-26 05:01:00,15.0,9.0,30.32,NW,309,4.0,6.0,78,0.00,,,0.00,,2013-01-26 11:01:00,
2013-01-26 05:12:00,15.0,9.0,30.32,NW,309,4.0,6.0,78,0.00,,,0.00,,2013-01-26 11:12:00,
2013-01-26 05:32:00,14.0,9.0,30.34,NW,311,2.0,4.0,80,0.00,,,0.00,,2013-01-26 11:32:00,
2013-01-26 05:42:00,14.0,9.0,30.34,NW,311,2.0,4.0,80,0.00,,,0.00,,2013-01-26 11:42:00,
2013-01-26 05:52:00,14.0,9.0,30.35,NW,315,2.0,6.0,80,0.00,,,0.00,,2013-01-26 11:52:00,
2013-01-26 06:02:00,14.0,9.0,30.35,NNW,336,1.0,5.0,80,0.00,,,0.00,,2013-01-26 12:02:00,
2013-01-26 06:12:00,14.0,9.0,30.35,NNW,336,1.0,5.0,80,0.00,,,0.00,,2013-01-26 12:12:00,
2013-01-26 06:22:00,14.0,9.0,30.36,NNW,340,2.0,4.0,81,0.00,,,0.00,,2013-01-26 12:22:00,
2013-01-26 06:33:00,13.0,8.0,30.37,NW,326,1.0,3.0,81,0.00,,,0.00,,2013-01-26 12:33:00,
2013-01-26 06:42:00,13.0,8.0,30.37,NW,326,1.0,3.0,81,0.00,,,0.00,,2013-01-26 12:42:00,
2013-01-26 06:52:00,13.0,8.0,30.37,NW,326,1.0,3.0,81,0.00,,,0.00,,2013-01-26 12:52:00,
2013-01-26 07:03:00,13.0,8.0,30.37,North,355,1.0,3.0,81,0.00,,,0.00,,2013-01-26 13:03:00,
2013-01-26 07:12:00,13.0,8.0,30.37,North,355,1.0,3.0,81,0.00,,,0.00,,2013-01-26 13:12:00,
2013-01-26 07:22:00,13.0,9.0,30.37,NNW,342,2.0,5.0,82,0.00,,,0.00,,2013-01-26 13:22:00,
2013-01-26 07:32:00,13.0,8.0,30.38,North,360,2.0,6.0,81,0.00,,,0.00,,2013-01-26 13:32:00,
2013-01-26 07:42:00,13.0,8.0,30.38,North,360,2.0,6.0,81,0.00,,,0.00,,2013-01-26 13:42:00,
2013-01-26 07:52:00,13.0,9.0,30.38,NE,36,2.0,5.0,82,0.00,,,0.00,,2013-01-26 13:52:00,
2013-01-26 08:03:00,13.0,8.0,30.38,NNE,24,1.0,6.0,81,0.00,,,0.00,,2013-01-26 14:03:00,
2013-01-26 08:12:00,13.0,8.0,30.38,NNE,24,1.0,6.0,81,0.00,,,0.00,,2013-01-26 14:12:00,
2013-01-26 08:22:00,14.0,9.0,30.38,NNE,28,1.0,4.0,81,0.00,,,0.00,,2013-01-26 14:22:00,
2013-01-26 08:32:00,15.0,10.0,30.39,NNE,31,1.0,7.0,80,0.00,,,0.00,,2013-01-26 14:32:00,
2013-01-26 08:43:00,15.0,10.0,30.39,NNE,31,1.0,7.0,80,0.00,,,0.00,,2013-01-26 14:43:00,
2013-01-26 08:52:00,16.0,11.0,30.40,North,9,4.0,7.0,79,0.00,,,0.00,,2013-01-26 14:52:00,
2013-01-26 10:02:00,20.0,12.0,30.41,NE,54,2.0,8.0,72,0.00,,,0.00,,2013-01-26 16:02:00,
2013-01-26 10:12:00,20.0,12.0,30.41,NE,54,2.0,8.0,72,0.00,,,0.00,,2013-01-26 16:12:00,
2013-01-26 10:22:00,21.0,13.0,30.42,NE,55,2.0,7.0,70,0.00,,,0.00,,2013-01-26 16:22:00,
2013-01-26 10:33:00,22.0,13.0,30.42,North,9,2.0,7.0,67,0.00,,,0.00,,2013-01-26 16:33:00,
2013-01-26 10:42:00,22.0,13.0,30.42,North,9,2.0,7.0,67,0.00,,,0.00,,2013-01-26 16:42:00,
2013-01-26 10:53:00,23.0,13.0,30.43,ESE,107,3.0,7.0,65,0.00,,,0.00,,2013-01-26 16:53:00,
2013-01-26 11:03:00,23.0,13.0,30.43,NNE,21,2.0,5.0,64,0.00,,,0.00,,2013-01-26 17:03:00,
2013-01-26 11:12:00,23.0,13.0,30.43,NNE,21,2.0,5.0,64,0.00,,,0.00,,2013-01-26 17:12:00,
2013-01-26 11:22:00,23.0,13.0,30.43,NNE,21,2.0,5.0,64,0.00,,,0.00,,2013-01-26 17:22:00,
2013-01-26 11:33:00,24.0,13.0,30.43,NE,46,3.0,5.0,61,0.00,,,0.00,,2013-01-26 17:33:00,
2013-01-26 11:42:00,24.0,13.0,30.43,NE,46,3.0,5.0,61,0.00,,,0.00,,2013-01-26 17:42:00,
2013-01-26 11:53:00,25.0,13.0,30.43,West,274,3.0,5.0,60,0.00,,,0.00,,2013-01-26 17:53:00,
2013-01-26 12:02:00,25.0,12.0,30.43,NNW,340,3.0,6.0,58,0.00,,,0.00,,2013-01-26 18:02:00,
2013-01-26 12:12:00,25.0,12.0,30.43,NNW,340,3.0,6.0,58,0.00,,,0.00,,2013-01-26 18:12:00,
2013-01-26 12:22:00,25.0,12.0,30.43,NW,309,3.0,5.0,58,0.00,,,0.00,,2013-01-26 18:22:00,
2013-01-26 12:33:00,26.0,12.0,30.42,WNW,292,2.0,6.0,56,0.00,,,0.00,,2013-01-26 18:33:00,
2013-01-26 12:42:00,26.0,12.0,30.42,WNW,292,2.0,6.0,56,0.00,,,0.00,,2013-01-26 18:42:00,
2013-01-26 12:53:00,26.0,12.0,30.42,WNW,292,1.0,7.0,56,0.00,,,0.00,,2013-01-26 18:53:00,
2013-01-26 13:03:00,27.0,13.0,30.41,WNW,296,0.0,5.0,55,0.00,,,0.00,,2013-01-26 19:03:00,
2013-01-26 13:12:00,27.0,13.0,30.41,WNW,296,0.0,5.0,55,0.00,,,0.00,,2013-01-26 19:12:00,
2013-01-26 13:22:00,28.0,13.0,30.40,WNW,286,3.0,5.0,53,0.00,,,0.00,,2013-01-26 19:22:00,
2013-01-26 13:32:00,28.0,13.0,30.39,SSE,159,2.0,8.0,53,0.00,,,0.00,,2013-01-26 19:32:00,
2013-01-26 13:42:00,28.0,13.0,30.39,SSE,159,2.0,8.0,53,0.00,,,0.00,,2013-01-26 19:42:00,
2013-01-26 13:53:00,28.0,13.0,30.39,WSW,237,3.0,7.0,53,0.00,,,0.00,,2013-01-26 19:53:00,
2013-01-26 14:02:00,29.0,13.0,30.38,SE,145,3.0,5.0,51,0.00,,,0.00,,2013-01-26 20:02:00,
2013-01-26 14:11:00,29.0,13.0,30.38,SE,145,3.0,5.0,51,0.00,,,0.00,,2013-01-26 20:11:00,
2013-01-26 14:22:00,30.0,14.0,30.39,ESE,103,2.0,5.0,51,0.00,,,0.00,,2013-01-26 20:22:00,
2013-01-26 14:32:00,30.0,14.0,30.39,NNE,32,2.0,6.0,50,0.00,,,0.00,,2013-01-26 20:32:00,
2013-01-26 14:42:00,30.0,14.0,30.39,NNE,32,2.0,6.0,50,0.00,,,0.00,,2013-01-26 20:42:00,
2013-01-26 14:52:00,31.0,14.0,30.39,East,97,1.0,4.0,49,0.00,,,0.00,,2013-01-26 20:52:00,
2013-01-26 15:02:00,31.0,14.0,30.39,SE,135,1.0,6.0,49,0.00,,,0.00,,2013-01-26 21:02:00,
2013-01-26 15:12:00,31.0,14.0,30.39,SE,135,1.0,6.0,49,0.00,,,0.00,,2013-01-26 21:12:00,
2013-01-26 15:22:00,32.0,15.0,30.39,ESE,107,2.0,6.0,48,0.00,,,0.00,,2013-01-26 21:22:00,
2013-01-26 15:32:00,32.0,15.0,30.39,SE,138,0.0,5.0,48,0.00,,,0.00,,2013-01-26 21:32:00,
2013-01-26 15:42:00,32.0,15.0,30.39,SE,138,0.0,5.0,48,0.00,,,0.00,,2013-01-26 21:42:00,
2013-01-26 15:52:00,32.0,15.0,30.38,South,178,1.0,3.0,48,0.00,,,0.00,,2013-01-26 21:52:00,
2013-01-26 16:01:00,31.0,13.0,30.37,ESE,118,1.0,7.0,47,0.00,,,0.00,,2013-01-26 22:01:00,
2013-01-26 16:11:00,31.0,13.0,30.37,ESE,118,1.0,7.0,47,0.00,,,0.00,,2013-01-26 22:11:00,
2013-01-26 16:22:00,31.0,13.0,30.37,ESE,118,1.0,7.0,47,0.00,,,0.00,,2013-01-26 22:22:00,
2013-01-26 16:32:00,31.0,14.0,30.37,SE,137,2.0,4.0,48,0.00,,,0.00,,2013-01-26 22:32:00,
2013-01-26 16:42:00,31.0,14.0,30.37,SE,137,2.0,4.0,48,0.00,,,0.00,,2013-01-26 22:42:00,
2013-01-26 16:52:00,31.0,14.0,30.37,ESE,106,1.0,4.0,49,0.00,,,0.00,,2013-01-26 22:52:00,
2013-01-26 17:01:00,31.0,15.0,30.39,ESE,112,1.0,3.0,50,0.00,,,0.00,,2013-01-26 23:01:00,
2013-01-26 17:12:00,31.0,15.0,30.39,ESE,112,1.0,3.0,50,0.00,,,0.00,,2013-01-26 23:12:00,
2013-01-26 17:22:00,30.0,14.0,30.39,ESE,112,1.0,2.0,51,0.00,,,0.00,,2013-01-26 23:22:00,
2013-01-26 17:32:00,29.0,14.0,30.39,ESE,121,1.0,3.0,54,0.00,,,0.00,,2013-01-26 23:32:00,
2013-01-26 17:42:00,29.0,14.0,30.39,ESE,121,1.0,3.0,54,0.00,,,0.00,,2013-01-26 23:42:00,
2013-01-26 17:52:00,28.0,15.0,30.39,ESE,123,1.0,3.0,58,0.00,,,0.00,,2013-01-26 23:52:00,
2013-01-26 18:02:00,28.0,16.0,30.40,ESE,108,0.0,4.0,61,0.00,,,0.00,,2013-01-27 00:02:00,
2013-01-26 18:11:00,28.0,16.0,30.40,ESE,108,0.0,4.0,61,0.00,,,0.00,,2013-01-27 00:11:00,
2013-01-26 18:21:00,27.0,15.0,30.41,ESE,112,1.0,3.0,61,0.00,,,0.00,,2013-01-27 00:21:00,
2013-01-26 18:32:00,26.0,15.0,30.40,ESE,115,2.0,4.0,62,0.00,,,0.00,,2013-01-27 00:32:00,
2013-01-26 18:42:00,26.0,15.0,30.40,ESE,115,2.0,4.0,62,0.00,,,0.00,,2013-01-27 00:42:00,
2013-01-26 18:52:00,26.0,16.0,30.39,ESE,116,3.0,7.0,64,0.00,,,0.00,,2013-01-27 00:52:00,
2013-01-26 19:01:00,26.0,16.0,30.38,East,96,3.0,9.0,66,0.00,,,0.00,,2013-01-27 01:01:00,
2013-01-26 19:11:00,26.0,16.0,30.38,East,96,3.0,9.0,66,0.00,,,0.00,,2013-01-27 01:11:00,
2013-01-26 19:22:00,26.0,16.0,30.38,East,96,3.0,8.0,66,0.00,,,0.00,,2013-01-27 01:22:00,
2013-01-26 19:32:00,26.0,17.0,30.37,ESE,104,3.0,9.0,67,0.00,,,0.00,,2013-01-27 01:32:00,
2013-01-26 19:41:00,26.0,17.0,30.37,ESE,104,3.0,9.0,67,0.00,,,0.00,,2013-01-27 01:41:00,
2013-01-26 19:52:00,26.0,17.0,30.38,SE,133,5.0,11.0,67,0.00,,,0.00,,2013-01-27 01:52:00,
2013-01-26 20:01:00,27.0,18.0,30.39,ESE,117,2.0,11.0,67,0.00,,,0.00,,2013-01-27 02:01:00,
2013-01-26 20:11:00,27.0,18.0,30.39,ESE,117,2.0,11.0,67,0.00,,,0.00,,2013-01-27 02:11:00,
2013-01-26 20:22:00,26.0,17.0,30.39,SE,132,2.0,5.0,68,0.00,,,0.00,,2013-01-27 02:22:00,
2013-01-26 20:31:00,26.0,17.0,30.39,ESE,116,1.0,4.0,69,0.00,,,0.00,,2013-01-27 02:31:00,
2013-01-26 20:42:00,26.0,17.0,30.39,ESE,116,1.0,4.0,69,0.00,,,0.00,,2013-01-27 02:42:00,
2013-01-26 20:52:00,26.0,18.0,30.39,SE,133,2.0,4.0,70,0.00,,,0.00,,2013-01-27 02:52:00,
2013-01-26 21:02:00,26.0,18.0,30.39,ESE,114,3.0,8.0,70,0.00,,,0.00,,2013-01-27 03:02:00,
2013-01-26 21:11:00,26.0,18.0,30.39,ESE,114,3.0,8.0,70,0.00,,,0.00,,2013-01-27 03:11:00,
2013-01-26 21:21:00,27.0,18.0,30.38,SE,134,7.0,11.0,69,0.00,,,0.00,,2013-01-27 03:21:00,
2013-01-26 21:32:00,27.0,18.0,30.39,ESE,113,5.0,16.0,69,0.00,,,0.00,,2013-01-27 03:32:00,
2013-01-26 21:42:00,27.0,18.0,30.39,ESE,113,5.0,16.0,69,0.00,,,0.00,,2013-01-27 03:42:00,
2013-01-26 21:52:00,27.0,19.0,30.39,SE,125,3.0,10.0,70,0.00,,,0.00,,2013-01-27 03:52:00,
2013-01-26 22:01:00,27.0,19.0,30.39,SE,125,3.0,10.0,70,0.00,,,0.00,,2013-01-27 04:01:00,
2013-01-26 22:11:00,27.0,19.0,30.39,SE,125,3.0,10.0,70,0.00,,,0.00,,2013-01-27 04:11:00,
2013-01-26 22:21:00,27.0,19.0,30.39,ESE,111,5.0,11.0,71,0.00,,,0.00,,2013-01-27 04:21:00,
2013-01-26 22:32:00,27.0,19.0,30.40,SSE,148,5.0,11.0,72,0.00,,,0.00,,2013-01-27 04:32:00,
2013-01-26 22:42:00,27.0,19.0,30.40,SSE,148,5.0,11.0,72,0.00,,,0.00,,2013-01-27 04:42:00,
2013-01-26 22:52:00,26.0,18.0,30.39,SE,132,5.0,12.0,72,0.00,,,0.00,,2013-01-27 04:52:00,
2013-01-26 23:03:00,26.0,19.0,30.40,SE,144,4.0,10.0,73,0.00,,,0.00,,2013-01-27 05:03:00,
2013-01-26 23:12:00,26.0,19.0,30.40,SE,144,4.0,10.0,73,0.00,,,0.00,,2013-01-27 05:12:00,
2013-01-26 23:22:00,25.0,18.0,30.40,SE,136,5.0,9.0,74,0.00,,,0.00,,2013-01-27 05:22:00,
2013-01-26 23:32:00,24.0,18.0,30.40,ESE,121,4.0,6.0,76,0.00,,,0.00,,2013-01-27 05:32:00,
2013-01-26 23:41:00,24.0,18.0,30.40,ESE,121,4.0,6.0,76,0.00,,,0.00,,2013-01-27 05:41:00,
2013-01-26 23:52:00,24.0,18.0,30.39,SE,138,4.0,7.0,77,0.00,,,0.00,,2013-01-27 05:52:00,